LEO 1 (LEO VANTAGE 1) (43113 NORAD) Tracking and Keplerian Element Data

This shows tracking and keplerian element data for the satellite.

Feedback or suggestion? Click here.




ElementValue
Catalog43113
NameLEO 1 (LEO VANTAGE 1)
Epoch Orbit36444
Epoch Day34.6376289
Epoch Year2025
RAAN243.1946
Inclination99.2942
Eccentricity0.0365282
Argument of Perigee164.3243
Mean Anonmoly196.9632
Mean Motion14.63755009
Decay Rate6.495E-05
L11 43113U 18004C 25034.63762890 .00006495 00000+0 46783-3 0 9994
L22 43113 99.2942 243.1946 0365282 164.3243 196.9632 14.63755009364444



Live tracking and technical data element details for LEO 1 (LEO VANTAGE 1) (NORAD 43113). LEO 1 (LEO VANTAGE 1) can be tracked NOW for your location showing map with azimuth and elevation plus other details from your city location.







IsCatalogInMostPopularTable: catalog: 43113, numindb: 726
Update: records affected: 1



GetName: 43113 LEO 1 (LEO VANTAGE 1)

Hit Count: updated at: Mon, 23 Jun 2025 12:47:01 GMT